Tracking 30995 objects as of 7-Jul-2025
HD Live streaming from Space Station
objects crossing your sky now

THOR ABLESTAR DEB

Track THOR ABLESTAR DEB now!
10-day predictions


NORAD ID: 3842
Int'l Code: 1961-015JF
Perigee: 901.8 km
Apogee: 1,097.8 km
Inclination: 66.7 °
Period: 105.0 minutes
Semi major axis: 7370 km
RCS: 0.0118 m2 (small)
Launch date: June 29, 1961
Source: United States (US)
Launch site: AIR FORCE EASTERN TEST RANGE (AFETR)

Note: This is SATELLITE DEBRIS
Your satellite tracking list
Your tracking list is empty




NASA's NSSDC Master Catalog

Two Line Element Set (TLE):
1  3842U 61015JF  25187.20645101  .00000251  00000-0  33550-3 0  9999
2  3842  66.7375 123.7190 0132950 336.5960  22.9091 13.71921804188240
Source of the keplerian elements: AFSPC